This demonstration page uses our WeatherBlox Daily Observations layout. Learn more.

Left ArrowRight Arrow

39.08367, -84.50855

Hourly Observations for May 5, 2022

Temp ( °F °C ) Dew Point ( °F °C ) Humidity (%) Winds ( mph kmh ) Pressure ( in mb ) Visibility ( mi km ) Precip ( " mm )
12:29 am 00:29 Cloudy 56 13.3 52 11.1 87 87 NE 5 7 30.17 1022 9 14 0.00 0.00
12:53 am 00:53 Cloudy 56 13.3 51 10.6 84 84 NE 8 13 30.16 1022 9 14 0.00 0.00
1:31 am 01:31 Cloudy 55 12.8 51 10.6 87 87 ENE 8 13 30.16 1021 9 14 0.00 0.00
1:53 am 01:53 Cloudy 55 12.8 51 10.6 87 87 NE 6 9 30.14 1021 9 14 0.00 0.00
2:53 am 02:53 Cloudy 55 12.8 52 11.1 90 90 ENE 5 7 30.11 1020 8 13 0.00 0.00
3:53 am 03:53 Cloudy 55 12.8 52 11.1 90 90 NNE 6 9 30.12 1020 10 16 0.00 0.00
4:53 am 04:53 Cloudy 54 12.2 51 10.6 90 90 NNE 3 6 30.14 1021 10 16 0.00 0.00
5:53 am 05:53 Cloudy 54 12.2 52 11.1 93 93 NE 5 7 30.12 1020 10 16 0.00 0.00
6:53 am 06:53 Cloudy 54 12.2 52 11.1 93 93 NE 5 7 30.13 1020 10 16 0.00 0.00
7:53 am 07:53 Cloudy 55 12.8 52 11.1 90 90 NNE 5 7 30.14 1021 10 16 0.00 0.00
8:41 am 08:41 Cloudy with Mist and Fog 56 13.3 52 11.1 87 87 ENE 7 11 30.13 1020 6 10 0.00 0.00
8:53 am 08:53 Cloudy with Mist and Fog 56 13.3 52 11.1 87 87 E 5 7 30.12 1020 6 10 0.00 0.00
9:53 am 09:53 Cloudy with Mist and Fog 58 14.4 53 11.7 84 84 ENE 6 9 30.12 1020 6 10 0.00 0.00
10:53 am 10:53 Cloudy 59 15 52 11.1 78 78 E 5 7 30.10 1019 10 16 0.00 0.00
11:53 am 11:53 Cloudy 61 16.1 52 11.1 72 72 VRB 3 6 30.08 1019 10 16 0.00 0.00
12:53 pm 12:53 Cloudy 61 16.1 53 11.7 75 75 SSE 8 13 30.06 1018 10 16 0.00 0.00
1:31 pm 13:31 Cloudy 63 17.2 53 11.7 70 70 ENE 9 15 30.04 1017 10 16 0.00 0.00
1:53 pm 13:53 Mostly Cloudy 63 17.2 53 11.7 70 70 E 8 13 30.03 1017 10 16 0.00 0.00
2:33 pm 14:33 Cloudy 63 17.2 53 11.7 70 70 Calm 30.03 1017 10 16 0.00 0.00
2:53 pm 14:53 Mostly Cloudy 63 17.2 53 11.7 70 70 ENE 7 11 30.01 1016 10 16 0.00 0.00
3:53 pm 15:53 Cloudy 64 17.8 54 12.2 70 70 E 8 13 29.98 1015 10 16 0.00 0.00
4:53 pm 16:53 Mostly Cloudy with Light Rain 61 16.1 58 14.4 90 90 NE 9 15 29.95 1014 10 16 0.02 0.51
5:53 pm 17:53 Cloudy with Light Rain 61 16.1 56 13.3 84 84 NE 8 13 29.94 1014 9 14 0.00 0.00
6:53 pm 18:53 Cloudy 59 15 57 13.9 93 93 ENE 7 11 29.91 1013 10 16 0.04 1.02
7:53 pm 19:53 Cloudy 60 15.6 57 13.9 90 90 ENE 3 6 29.91 1013 8 13 0.00 0.00
8:53 pm 20:53 Mostly Cloudy 59 15 57 13.9 93 93 NE 6 9 29.89 1012 8 13 0.00 0.00
9:53 pm 21:53 Cloudy with Heavy Rain 58 14.4 57 13.9 97 97 E 3 6 29.88 1012 3 5 0.05 1.27
10:53 pm 22:53 Cloudy with Light Rain 58 14.4 58 14.4 100 100 N 6 9 29.91 1013 3 5 0.04 1.02
11:53 pm 23:53 Cloudy with Mist and Fog 58 14.4 57 13.9 97 97 ENE 3 6 29.85 1011 6 10 0.01 0.25

Powered by AerisWeather